sat.trackr.live / text

‹ back to catalog

STARLINK-30472

NORAD 57901 · 2023-146L

PAYLOAD ACTIVE UNKNOWN

§ Identity

Operator
Country
US
Launch date
2023-09-20
Launch site
AFETR
Launch vehicle
Mass (kg)
RCS (m²)

Purposes: comms

External: N2YO · Heavens-Above · Gunter

§ Orbital elements

Epoch: 2026-05-24T23:11:51.642816Z

Period
94.27 min
Inclination
42.9991°
Eccentricity
0.0001239
Mean motion
15.27577052 rev/d
Perigee alt
482.2 km
Apogee alt
483.9 km
Semi-major
6,861.2 km
B*
3.8622e-5
RAAN
239.8616°
Arg perigee
274.9982°
Mean anomaly
85.0728°
Rev number
14,770

§ Raw data

STARLINK-304721 57901U 23146L   26144.96656994  .00000801  00000+0  38622-4 0  99922 57901  42.9991 239.8616 0001239 274.9982  85.0728 15.27577052147709

JSON: /api/v1/satellites/57901 · /tle

For live sub-satellite position, see the globe view (requires WebGL).

§ Visibility from observer

Set your observer location to see the next 7 days of passes ≥ 10°. The values pass through the URL so the page stays shareable.

No JS? Fill the form by hand. The geolocation button needs JavaScript.